| time (UTC) | temp C | wind direction | speed KPH | gust KPH | rain 1hr cm | rain 24hr cm | rain mn cm | humidity % | barometer mb |
| 20260506201541 | 30 | 164 | 9.7 | 16.1 | 0.00 | 0.00 | 0.00 | 59 | 1006.8 |
| 20260506201043 | 30 | 93 | 3.2 | 14.5 | 0.00 | 0.00 | 0.00 | 60 | 1007.0 |
| 20260506200539 | 30 | 113 | 6.4 | 14.5 | 0.00 | 0.00 | 0.00 | 61 | 1007.1 |
| 20260506200037 | 29 | 106 | 1.6 | 14.5 | 0.00 | 0.00 | 0.00 | 60 | 1007.1 |
| 20260506195537 | 28 | 106 | 9.7 | 14.5 | 0.00 | 0.00 | 0.00 | 62 | 1007.2 |
| 20260506195038 | 28 | 78 | 3.2 | 14.5 | 0.00 | 0.00 | 0.00 | 64 | 1007.2 |
| 20260506194540 | 28 | 123 | 4.8 | 12.9 | 0.00 | 0.00 | 0.00 | 64 | 1007.1 |
| 20260506194037 | 29 | 169 | 0.0 | 8.0 | 0.00 | 0.00 | 0.00 | 64 | 1007.0 |
| 20260506193535 | 28 | 76 | 1.6 | 17.7 | 0.00 | 0.00 | 0.00 | 67 | 1007.2 |
| 20260506193045 | 28 | 56 | 9.7 | 17.7 | 0.00 | 0.00 | 0.00 | 66 | 1007.2 |
| 20260506192534 | 28 | 57 | 6.4 | 14.5 | 0.00 | 0.00 | 0.00 | 67 | 1007.3 |
| 20260506192035 | 27 | 62 | 8.0 | 14.5 | 0.00 | 0.00 | 0.00 | 67 | 1007.3 |
| 20260506191533 | 28 | 128 | 6.4 | 14.5 | 0.00 | 0.00 | 0.00 | 68 | 1007.3 |
| 20260506191032 | 28 | 103 | 3.2 | 11.3 | 0.00 | 0.00 | 0.00 | 69 | 1007.3 |
| 20260506190530 | 27 | 142 | 1.6 | 11.3 | 0.00 | 0.00 | 0.00 | 70 | 1007.4 |
| 20260506190028 | 27 | 142 | 3.2 | 11.3 | 0.00 | 0.00 | 0.00 | 72 | 1007.5 |
| 20260506185527 | 27 | 144 | 3.2 | 16.1 | 0.00 | 0.00 | 0.00 | 72 | 1007.5 |
| 20260506185026 | 26 | 144 | 8.0 | 16.1 | 0.00 | 0.00 | 0.00 | 73 | 1007.7 |
| 20260506184531 | 26 | 125 | 6.4 | 17.7 | 0.00 | 0.00 | 0.00 | 73 | 1007.7 |
| 20260506184027 | 26 | 360 | 8.0 | 17.7 | 0.00 | 0.00 | 0.00 | 73 | 1007.8 |
| 20260506183527 | 27 | 119 | 8.0 | 16.1 | 0.00 | 0.00 | 0.00 | 73 | 1007.8 |
| 20260506183025 | 26 | 139 | 8.0 | 16.1 | 0.00 | 0.00 | 0.00 | 74 | 1007.9 |
| 20260506182523 | 26 | 360 | 9.7 | 16.1 | 0.00 | 0.00 | 0.00 | 74 | 1007.9 |
| 20260506182023 | 26 | 360 | 8.0 | 17.7 | 0.00 | 0.00 | 0.00 | 75 | 1008.1 |
| 20260506181536 | 26 | 360 | 9.7 | 17.7 | 0.00 | 0.00 | 0.00 | 75 | 1008.2 |
| 20260506181023 | 26 | 360 | 4.8 | 14.5 | 0.00 | 0.00 | 0.00 | 75 | 1008.2 |
| 20260506180523 | 26 | 360 | 4.8 | 17.7 | 0.00 | 0.00 | 0.00 | 75 | 1008.3 |
| 20260506180025 | 26 | 360 | 6.4 | 17.7 | 0.00 | 0.00 | 0.00 | 74 | 1008.4 |
| 20260506175524 | 26 | 360 | 3.2 | 12.9 | 0.00 | 0.00 | 0.00 | 74 | 1008.3 |
| 20260506175021 | 26 | 360 | 4.8 | 14.5 | 0.00 | 0.00 | 0.00 | 74 | 1008.3 |
| 20260506174521 | 26 | 360 | 9.7 | 14.5 | 0.00 | 0.00 | 0.00 | 74 | 1008.3 |
| 20260506174023 | 26 | 360 | 8.0 | 16.1 | 0.00 | 0.00 | 0.00 | 75 | 1008.2 |
| 20260506173522 | 26 | 360 | 8.0 | 16.1 | 0.00 | 0.00 | 0.00 | 75 | 1008.3 |
| 20260506173026 | 26 | 360 | 9.7 | 16.1 | 0.00 | 0.00 | 0.00 | 75 | 1008.4 |
| 20260506172518 | 26 | 360 | 8.0 | 14.5 | 0.00 | 0.00 | 0.00 | 75 | 1008.4 |
| 20260506172019 | 26 | 40 | 6.4 | 16.1 | 0.00 | 0.00 | 0.00 | 76 | 1008.5 |
| 20260506171520 | 26 | 70 | 9.7 | 16.1 | 0.00 | 0.00 | 0.00 | 76 | 1008.4 |
| 20260506171020 | 26 | 57 | 11.3 | 16.1 | 0.00 | 0.00 | 0.00 | 75 | 1008.4 |
| 20260506170518 | 26 | 360 | 8.0 | 14.5 | 0.00 | 0.00 | 0.00 | 76 | 1008.4 |
| 20260506170017 | 25 | 360 | 4.8 | 12.9 | 0.00 | 0.00 | 0.00 | 76 | 1008.5 |
| 20260506165517 | 25 | 360 | 4.8 | 14.5 | 0.00 | 0.00 | 0.00 | 77 | 1008.5 |
| 20260506165014 | 25 | 360 | 8.0 | 14.5 | 0.00 | 0.00 | 0.00 | 78 | 1008.6 |
| 20260506164513 | 25 | 360 | 8.0 | 14.5 | 0.00 | 0.00 | 0.00 | 79 | 1008.5 |
| 20260506164015 | 25 | 360 | 6.4 | 14.5 | 0.00 | 0.00 | 0.00 | 79 | 1008.5 |
| 20260506163510 | 25 | 360 | 6.4 | 14.5 | 0.00 | 0.00 | 0.00 | 79 | 1008.4 |
| 20260506163016 | 25 | 360 | 6.4 | 12.9 | 0.00 | 0.00 | 0.00 | 79 | 1008.4 |
| 20260506162509 | 25 | 360 | 3.2 | 12.9 | 0.00 | 0.00 | 0.00 | 80 | 1008.5 |
| 20260506162010 | 25 | 360 | 6.4 | 12.9 | 0.00 | 0.00 | 0.00 | 81 | 1008.4 |
| 20260506161508 | 25 | 360 | 8.0 | 12.9 | 0.00 | 0.00 | 0.00 | 82 | 1008.3 |
| 20260506161009 | 24 | 360 | 4.8 | 9.7 | 0.00 | 0.00 | 0.00 | 82 | 1008.4 |
| 20260506160505 | 24 | 360 | 4.8 | 9.7 | 0.00 | 0.00 | 0.00 | 83 | 1008.2 |
| 20260506160004 | 24 | 360 | 1.6 | 8.0 | 0.00 | 0.00 | 0.00 | 83 | 1008.3 |
| 20260506155501 | 24 | 360 | 4.8 | 9.7 | 0.00 | 0.00 | 0.00 | 83 | 1008.2 |
| 20260506155104 | 24 | 360 | 4.8 | 9.7 | 0.00 | 0.00 | 0.00 | 83 | 1008.1 |
| 20260506154613 | 23 | 360 | 3.2 | 9.7 | 0.00 | 0.00 | 0.00 | 83 | 1008.2 |
| 20260506154057 | 23 | 360 | 6.4 | 12.9 | 0.00 | 0.00 | 0.00 | 83 | 1008.0 |
| 20260506153556 | 23 | 360 | 4.8 | 12.9 | 0.00 | 0.00 | 0.00 | 83 | 1008.0 |
| 20260506153056 | 23 | 360 | 3.2 | 9.7 | 0.00 | 0.00 | 0.00 | 84 | 1008.0 |
| 20260506152554 | 23 | 360 | 4.8 | 9.7 | 0.00 | 0.00 | 0.00 | 84 | 1007.9 |
| 20260506152057 | 23 | 360 | 4.8 | 8.0 | 0.00 | 0.00 | 0.00 | 84 | 1007.9 |
| 20260506151552 | 23 | 360 | 4.8 | 9.7 | 0.00 | 0.00 | 0.00 | 84 | 1007.7 |
| 20260506151054 | 23 | 360 | 3.2 | 6.4 | 0.00 | 0.00 | 0.00 | 83 | 1007.6 |
| 20260506150551 | 23 | 360 | 3.2 | 8.0 | 0.00 | 0.00 | 0.00 | 83 | 1007.5 |
| 20260506150050 | 23 | 360 | 3.2 | 6.4 | 0.00 | 0.00 | 0.00 | 83 | 1007.6 |
| 20260506145550 | 23 | 360 | 3.2 | 4.8 | 0.00 | 0.00 | 0.00 | 84 | 1007.6 |
| 20260506145049 | 23 | 360 | 1.6 | 3.2 | 0.00 | 0.00 | 0.00 | 84 | 1007.7 |
| 20260506144554 | 23 | 360 | 0.0 | 3.2 | 0.00 | 0.00 | 0.00 | 84 | 1007.7 |
| 20260506144050 | 23 | 360 | 0.0 | 4.8 | 0.00 | 0.00 | 0.00 | 84 | 1007.5 |
| 20260506143548 | 23 | 360 | 1.6 | 4.8 | 0.00 | 0.00 | 0.00 | 84 | 1007.5 |
| 20260506143048 | 23 | 360 | 1.6 | 4.8 | 0.00 | 0.00 | 0.00 | 84 | 1007.3 |
| 20260506142546 | 23 | 360 | 3.2 | 8.0 | 0.00 | 0.00 | 0.00 | 84 | 1007.2 |
| 20260506142045 | 23 | 360 | 1.6 | 8.0 | 0.00 | 0.00 | 0.00 | 84 | 1007.0 |
| 20260506141545 | 23 | 360 | 1.6 | 9.7 | 0.00 | 0.00 | 0.00 | 84 | 1007.1 |
| 20260506141046 | 23 | 360 | 4.8 | 9.7 | 0.00 | 0.00 | 0.00 | 84 | 1007.0 |
| 20260506140547 | 23 | 360 | 3.2 | 9.7 | 0.00 | 0.00 | 0.00 | 84 | 1006.9 |
| 20260506140042 | 23 | 360 | 3.2 | 12.9 | 0.00 | 0.00 | 0.00 | 84 | 1006.8 |
| 20260506135541 | 23 | 360 | 4.8 | 9.7 | 0.00 | 0.00 | 0.00 | 84 | 1006.8 |
| 20260506135040 | 23 | 360 | 1.6 | 8.0 | 0.00 | 0.00 | 0.00 | 85 | 1006.6 |
| 20260506134540 | 23 | 360 | 3.2 | 12.9 | 0.00 | 0.00 | 0.00 | 85 | 1006.4 |
| 20260506134040 | 23 | 360 | 3.2 | 14.5 | 0.00 | 0.00 | 0.00 | 85 | 1006.3 |
| 20260506133539 | 23 | 360 | 4.8 | 14.5 | 0.00 | 0.00 | 0.00 | 85 | 1006.4 |
| 20260506133052 | 23 | 360 | 3.2 | 16.1 | 0.00 | 0.00 | 0.00 | 85 | 1006.2 |
| 20260506132538 | 23 | 360 | 8.0 | 16.1 | 0.00 | 0.00 | 0.00 | 85 | 1006.4 |
| 20260506132040 | 23 | 360 | 4.8 | 16.1 | 0.00 | 0.00 | 0.00 | 85 | 1006.3 |
| 20260506131538 | 23 | 360 | 4.8 | 19.3 | 0.00 | 0.00 | 0.00 | 85 | 1006.2 |
| 20260506131037 | 23 | 360 | 6.4 | 19.3 | 0.00 | 0.00 | 0.00 | 85 | 1006.0 |
| 20260506130537 | 23 | 360 | 4.8 | 17.7 | 0.00 | 0.00 | 0.00 | 85 | 1006.1 |
| 20260506130039 | 23 | 360 | 6.4 | 19.3 | 0.00 | 0.00 | 0.00 | 85 | 1006.0 |
| 20260506125537 | 23 | 360 | 14.5 | 19.3 | 0.00 | 0.00 | 0.00 | 85 | 1006.1 |
| 20260506125034 | 23 | 360 | 9.7 | 19.3 | 0.00 | 0.00 | 0.00 | 85 | 1006.0 |
| 20260506124534 | 23 | 360 | 1.6 | 16.1 | 0.00 | 0.00 | 0.00 | 85 | 1006.0 |
| 20260506124033 | 23 | 360 | 6.4 | 16.1 | 0.00 | 0.00 | 0.00 | 85 | 1006.1 |
| 20260506123532 | 23 | 360 | 6.4 | 16.1 | 0.00 | 0.00 | 0.00 | 85 | 1006.1 |
| 20260506123032 | 23 | 360 | 6.4 | 14.5 | 0.00 | 0.00 | 0.00 | 85 | 1006.0 |
| 20260506122532 | 23 | 360 | 4.8 | 14.5 | 0.00 | 0.00 | 0.00 | 85 | 1006.1 |
| 20260506122031 | 23 | 360 | 6.4 | 14.5 | 0.00 | 0.00 | 0.00 | 85 | 1006.1 |
| 20260506121529 | 23 | 360 | 4.8 | 8.0 | 0.00 | 0.00 | 0.00 | 85 | 1006.1 |
| 20260506121031 | 23 | 360 | 3.2 | 9.7 | 0.00 | 0.00 | 0.00 | 85 | 1006.0 |
| 20260506120529 | 23 | 360 | 4.8 | 12.9 | 0.00 | 0.00 | 0.00 | 85 | 1005.9 |
| 20260506120029 | 23 | 360 | 6.4 | 12.9 | 0.00 | 0.00 | 0.00 | 85 | 1006.0 |
| 20260506115529 | 23 | 360 | 3.2 | 14.5 | 0.00 | 0.00 | 0.00 | 85 | 1006.0 |
| 20260506115028 | 23 | 360 | 8.0 | 14.5 | 0.00 | 0.00 | 0.00 | 85 | 1005.9 |
| 20260506114529 | 23 | 360 | 4.8 | 14.5 | 0.00 | 0.00 | 0.00 | 85 | 1005.9 |
| 20260506114027 | 23 | 360 | 3.2 | 9.7 | 0.00 | 0.00 | 0.00 | 85 | 1005.9 |
| 20260506113530 | 23 | 360 | 4.8 | 8.0 | 0.00 | 0.00 | 0.00 | 85 | 1005.9 |
| 20260506113028 | 23 | 360 | 3.2 | 8.0 | 0.00 | 0.00 | 0.00 | 85 | 1005.9 |
| 20260506112527 | 23 | 360 | 3.2 | 14.5 | 0.00 | 0.00 | 0.00 | 85 | 1005.9 |
| 20260506112027 | 23 | 360 | 4.8 | 14.5 | 0.00 | 0.00 | 0.00 | 85 | 1005.9 |
| 20260506111527 | 23 | 360 | 3.2 | 14.5 | 0.00 | 0.00 | 0.00 | 85 | 1005.8 |
| 20260506111026 | 23 | 360 | 4.8 | 14.5 | 0.00 | 0.00 | 0.00 | 84 | 1006.0 |
| 20260506110526 | 23 | 360 | 6.4 | 14.5 | 0.00 | 0.00 | 0.00 | 84 | 1005.9 |
| 20260506110026 | 23 | 360 | 6.4 | 12.9 | 0.00 | 0.00 | 0.00 | 84 | 1005.9 |
| 20260506105526 | 23 | 360 | 3.2 | 9.7 | 0.00 | 0.00 | 0.00 | 84 | 1005.9 |
| 20260506105026 | 23 | 360 | 4.8 | 14.5 | 0.00 | 0.00 | 0.00 | 84 | 1005.8 |
| 20260506104551 | 23 | 360 | 4.8 | 16.1 | 0.00 | 0.00 | 0.00 | 84 | 1005.8 |
| 20260506104029 | 23 | 360 | 6.4 | 17.7 | 0.00 | 0.00 | 0.00 | 84 | 1005.7 |
| 20260506103525 | 23 | 360 | 9.7 | 17.7 | 0.00 | 0.00 | 0.00 | 84 | 1005.5 |
| 20260506103024 | 23 | 360 | 3.2 | 16.1 | 0.00 | 0.00 | 0.00 | 84 | 1005.7 |
| 20260506102525 | 23 | 360 | 4.8 | 16.1 | 0.00 | 0.00 | 0.00 | 84 | 1005.8 |
| 20260506102025 | 23 | 360 | 4.8 | 14.5 | 0.00 | 0.00 | 0.00 | 84 | 1005.7 |
| 20260506101524 | 23 | 360 | 4.8 | 14.5 | 0.00 | 0.00 | 0.00 | 83 | 1005.7 |
| 20260506101026 | 23 | 360 | 3.2 | 14.5 | 0.00 | 0.00 | 0.00 | 83 | 1005.7 |
| 20260506100524 | 23 | 360 | 3.2 | 14.5 | 0.00 | 0.00 | 0.00 | 83 | 1005.7 |
| 20260506100023 | 23 | 360 | 1.6 | 24.1 | 0.00 | 0.00 | 0.00 | 83 | 1005.7 |
| 20260506095523 | 23 | 360 | 6.4 | 24.1 | 0.00 | 0.00 | 0.00 | 83 | 1005.7 |
| 20260506095022 | 23 | 360 | 8.0 | 24.1 | 0.00 | 0.00 | 0.00 | 83 | 1005.7 |
| 20260506094529 | 23 | 360 | 6.4 | 20.9 | 0.00 | 0.00 | 0.00 | 83 | 1005.7 |
| 20260506094021 | 23 | 360 | 9.7 | 16.1 | 0.00 | 0.00 | 0.00 | 83 | 1005.6 |
| 20260506093520 | 23 | 153 | 8.0 | 16.1 | 0.00 | 0.00 | 0.00 | 83 | 1005.6 |
| 20260506093020 | 23 | 194 | 3.2 | 16.1 | 0.00 | 0.00 | 0.00 | 83 | 1005.6 |
| 20260506092520 | 23 | 148 | 6.4 | 16.1 | 0.00 | 0.00 | 0.00 | 83 | 1005.6 |
| 20260506092020 | 23 | 167 | 3.2 | 16.1 | 0.00 | 0.00 | 0.00 | 83 | 1005.5 |
| 20260506091521 | 23 | 173 | 6.4 | 22.5 | 0.00 | 0.00 | 0.00 | 83 | 1005.6 |
| 20260506091021 | 23 | 252 | 6.4 | 22.5 | 0.00 | 0.00 | 0.00 | 83 | 1005.6 |
| 20260506090522 | 23 | 192 | 8.0 | 22.5 | 0.00 | 0.00 | 0.00 | 83 | 1005.5 |
| 20260506090018 | 23 | 156 | 12.9 | 22.5 | 0.00 | 0.00 | 0.00 | 83 | 1005.6 |
| 20260506085518 | 23 | 180 | 4.8 | 16.1 | 0.00 | 0.00 | 0.00 | 83 | 1005.7 |
| 20260506085018 | 23 | 157 | 6.4 | 25.7 | 0.00 | 0.00 | 0.00 | 83 | 1005.7 |
| 20260506084517 | 23 | 166 | 12.9 | 27.4 | 0.00 | 0.00 | 0.00 | 83 | 1005.7 |
| 20260506084019 | 23 | 167 | 8.0 | 22.5 | 0.00 | 0.00 | 0.00 | 83 | 1005.8 |
| 20260506083516 | 23 | 164 | 4.8 | 16.1 | 0.00 | 0.00 | 0.00 | 83 | 1005.9 |
| 20260506083033 | 23 | 171 | 8.0 | 17.7 | 0.00 | 0.00 | 0.00 | 83 | 1005.9 |
| 20260506082515 | 23 | 140 | 4.8 | 25.7 | 0.00 | 0.00 | 0.00 | 83 | 1005.9 |
| 20260506082014 | 23 | 156 | 11.3 | 24.1 | 0.00 | 0.00 | 0.00 | 83 | 1005.9 |
| 20260506081514 | 23 | 157 | 8.0 | 22.5 | 0.00 | 0.00 | 0.00 | 83 | 1006.0 |
| 20260506081015 | 23 | 165 | 6.4 | 22.5 | 0.00 | 0.00 | 0.00 | 83 | 1005.9 |
| 20260506080512 | 23 | 159 | 8.0 | 22.5 | 0.00 | 0.00 | 0.00 | 83 | 1005.9 |
| 20260506073512 | 23 | 147 | 8.0 | 27.4 | 0.00 | 0.00 | 0.00 | 83 | 1006.0 |
| 20260506073009 | 23 | 152 | 11.3 | 30.6 | 0.00 | 0.00 | 0.00 | 83 | 1006.1 |
| 20260506072508 | 23 | 166 | 17.7 | 32.2 | 0.00 | 0.00 | 0.00 | 83 | 1006.1 |
| 20260506072007 | 23 | 184 | 14.5 | 32.2 | 0.00 | 0.00 | 0.00 | 83 | 1006.1 |
| 20260506071507 | 23 | 154 | 11.3 | 29.0 | 0.00 | 0.00 | 0.00 | 83 | 1006.2 |
| 20260506071006 | 23 | 260 | 14.5 | 29.0 | 0.00 | 0.00 | 0.00 | 83 | 1006.3 |
| 20260506070507 | 23 | 171 | 9.7 | 27.4 | 0.00 | 0.00 | 0.00 | 83 | 1006.3 |
| 20260506062503 | 23 | 153 | 9.7 | 35.4 | 0.00 | 0.00 | 0.00 | 83 | 1006.4 |
| 20260506062101 | 23 | 144 | 12.9 | 30.6 | 0.00 | 0.00 | 0.00 | 83 | 1006.3 |
| 20260506061600 | 23 | 161 | 9.7 | 25.7 | 0.00 | 0.00 | 0.00 | 83 | 1006.2 |
| 20260506061501 | 23 | 140 | 8.0 | 25.7 | 0.00 | 0.00 | 0.00 | 83 | 1006.2 |
| 20260506061100 | 23 | 128 | 16.1 | 25.7 | 0.00 | 0.00 | 0.00 | 83 | 1006.2 |
| 20260506060604 | 23 | 190 | 12.9 | 27.4 | 0.00 | 0.00 | 0.00 | 83 | 1006.3 |
| 20260506051052 | 24 | 360 | 11.3 | 29.0 | 0.00 | 0.00 | 0.00 | 82 | 1006.3 |
| 20260506050551 | 24 | 360 | 4.8 | 29.0 | 0.00 | 0.00 | 0.00 | 82 | 1006.2 |
| 20260506045049 | 24 | 360 | 12.9 | 24.1 | 0.00 | 0.00 | 0.00 | 82 | 1006.2 |
| 20260506044603 | 24 | 360 | 9.7 | 27.4 | 0.00 | 0.00 | 0.00 | 81 | 1006.1 |
| 20260506044048 | 24 | 360 | 11.3 | 27.4 | 0.00 | 0.00 | 0.00 | 81 | 1006.1 |
| 20260506043547 | 24 | 360 | 12.9 | 30.6 | 0.00 | 0.00 | 0.00 | 81 | 1006.1 |
| 20260506043054 | 25 | 360 | 14.5 | 30.6 | 0.00 | 0.00 | 0.00 | 80 | 1006.2 |
| 20260506042548 | 25 | 360 | 4.8 | 20.9 | 0.00 | 0.00 | 0.00 | 80 | 1006.1 |
| 20260506042047 | 25 | 360 | 8.0 | 25.7 | 0.00 | 0.00 | 0.00 | 80 | 1006.0 |
| 20260506041550 | 25 | 360 | 8.0 | 25.7 | 0.00 | 0.00 | 0.00 | 80 | 1005.9 |
| 20260506041046 | 25 | 360 | 9.7 | 22.5 | 0.00 | 0.00 | 0.00 | 80 | 1005.9 |
| 20260506040546 | 25 | 360 | 14.5 | 22.5 | 0.00 | 0.00 | 0.00 | 80 | 1005.8 |
| 20260506040147 | 25 | 360 | 8.0 | 22.5 | 0.00 | 0.00 | 0.00 | 80 | 1005.7 |
| 20260506035546 | 25 | 360 | 6.4 | 32.2 | 0.00 | 0.00 | 0.00 | 80 | 1005.7 |
| 20260506035045 | 25 | 360 | 17.7 | 32.2 | 0.00 | 0.00 | 0.00 | 79 | 1005.8 |
| 20260506034547 | 25 | 360 | 11.3 | 24.1 | 0.00 | 0.00 | 0.00 | 79 | 1005.7 |
| 20260506034045 | 25 | 360 | 12.9 | 27.4 | 0.00 | 0.00 | 0.00 | 79 | 1005.5 |
| 20260506033545 | 25 | 360 | 11.3 | 27.4 | 0.00 | 0.00 | 0.00 | 79 | 1005.4 |
| 20260506033045 | 25 | 360 | 16.1 | 25.7 | 0.00 | 0.00 | 0.00 | 79 | 1005.4 |
| 20260506032546 | 25 | 360 | 9.7 | 29.0 | 0.00 | 0.00 | 0.00 | 78 | 1005.3 |
| 20260506032045 | 25 | 360 | 12.9 | 29.0 | 0.00 | 0.00 | 0.00 | 78 | 1005.3 |
| 20260506031549 | 26 | 360 | 16.1 | 29.0 | 0.00 | 0.00 | 0.00 | 78 | 1005.4 |
| 20260506031048 | 26 | 360 | 11.3 | 29.0 | 0.00 | 0.00 | 0.00 | 78 | 1005.3 |
| 20260506030544 | 26 | 136 | 14.5 | 29.0 | 0.00 | 0.00 | 0.00 | 78 | 1005.2 |
| 20260506030044 | 26 | 130 | 14.5 | 29.0 | 0.00 | 0.00 | 0.00 | 77 | 1005.2 |
| 20260506025545 | 26 | 140 | 14.5 | 27.4 | 0.00 | 0.00 | 0.00 | 77 | 1005.1 |
| 20260506025043 | 26 | 159 | 11.3 | 24.1 | 0.00 | 0.00 | 0.00 | 76 | 1005.0 |
| 20260506024546 | 26 | 146 | 8.0 | 25.7 | 0.00 | 0.00 | 0.00 | 76 | 1004.8 |
| 20260506024045 | 26 | 163 | 11.3 | 27.4 | 0.00 | 0.00 | 0.00 | 76 | 1004.8 |
| 20260506023544 | 26 | 124 | 8.0 | 27.4 | 0.00 | 0.00 | 0.00 | 75 | 1004.7 |
| 20260506023046 | 27 | 140 | 16.1 | 27.4 | 0.00 | 0.00 | 0.00 | 75 | 1004.7 |
| 20260506022544 | 27 | 360 | 8.0 | 22.5 | 0.00 | 0.00 | 0.00 | 74 | 1004.6 |
| 20260506022043 | 27 | 142 | 14.5 | 25.7 | 0.00 | 0.00 | 0.00 | 74 | 1004.5 |
| 20260506021553 | 27 | 133 | 14.5 | 27.4 | 0.00 | 0.00 | 0.00 | 73 | 1004.5 |
| 20260506021043 | 27 | 159 | 14.5 | 27.4 | 0.00 | 0.00 | 0.00 | 73 | 1004.5 |
| 20260506020543 | 27 | 137 | 9.7 | 24.1 | 0.00 | 0.00 | 0.00 | 72 | 1004.4 |
| 20260506020042 | 27 | 136 | 14.5 | 24.1 | 0.00 | 0.00 | 0.00 | 72 | 1004.3 |
| 20260506015543 | 27 | 148 | 9.7 | 27.4 | 0.00 | 0.00 | 0.00 | 71 | 1004.1 |
| 20260506015043 | 27 | 133 | 14.5 | 30.6 | 0.00 | 0.00 | 0.00 | 71 | 1004.1 |
| 20260506014543 | 28 | 137 | 17.7 | 30.6 | 0.00 | 0.00 | 0.00 | 70 | 1004.0 |
| 20260506014046 | 28 | 156 | 9.7 | 25.7 | 0.00 | 0.00 | 0.00 | 69 | 1003.9 |
| 20260506013541 | 28 | 84 | 9.7 | 25.7 | 0.00 | 0.00 | 0.00 | 69 | 1003.9 |
| 20260506013045 | 28 | 136 | 14.5 | 22.5 | 0.00 | 0.00 | 0.00 | 69 | 1003.8 |
| 20260506012542 | 28 | 112 | 8.0 | 19.3 | 0.00 | 0.00 | 0.00 | 69 | 1003.7 |
| 20260506012042 | 28 | 99 | 12.9 | 19.3 | 0.00 | 0.00 | 0.00 | 68 | 1003.8 |
| 20260506011546 | 28 | 121 | 8.0 | 17.7 | 0.00 | 0.00 | 0.00 | 68 | 1003.6 |
| 20260506011045 | 28 | 74 | 9.7 | 19.3 | 0.00 | 0.00 | 0.00 | 68 | 1003.5 |
| 20260506010541 | 28 | 105 | 12.9 | 20.9 | 0.00 | 0.00 | 0.00 | 68 | 1003.4 |
| 20260506010047 | 28 | 100 | 12.9 | 20.9 | 0.00 | 0.00 | 0.00 | 67 | 1003.4 |
| 20260506005540 | 28 | 136 | 6.4 | 19.3 | 0.00 | 0.00 | 0.00 | 67 | 1003.4 |
| 20260506005040 | 28 | 115 | 8.0 | 19.3 | 0.00 | 0.00 | 0.00 | 66 | 1003.3 |
| 20260506004540 | 29 | 108 | 12.9 | 20.9 | 0.00 | 0.00 | 0.00 | 66 | 1003.2 |
| 20260506004040 | 29 | 103 | 9.7 | 20.9 | 0.00 | 0.00 | 0.00 | 65 | 1003.3 |
| 20260506003540 | 29 | 138 | 6.4 | 16.1 | 0.00 | 0.00 | 0.00 | 65 | 1003.2 |
| 20260506003040 | 29 | 135 | 9.7 | 16.1 | 0.00 | 0.00 | 0.00 | 65 | 1003.3 |
| 20260506002539 | 29 | 136 | 6.4 | 17.7 | 0.00 | 0.00 | 0.00 | 65 | 1003.3 |
| 20260506002040 | 29 | 116 | 4.8 | 17.7 | 0.00 | 0.00 | 0.00 | 64 | 1003.2 |
| 20260506001539 | 30 | 92 | 8.0 | 14.5 | 0.00 | 0.00 | 0.00 | 64 | 1003.2 |
| 20260506001040 | 30 | 96 | 4.8 | 14.5 | 0.00 | 0.00 | 0.00 | 64 | 1003.2 |
| 20260506000540 | 29 | 96 | 6.4 | 14.5 | 0.00 | 0.00 | 0.00 | 64 | 1003.1 |
| 20260506000039 | 29 | 113 | 6.4 | 14.5 | 0.00 | 0.00 | 0.00 | 64 | 1003.1 |
| 20260505235538 | 29 | 132 | 4.8 | 14.5 | 0.00 | 0.00 | 0.00 | 64 | 1003.1 |
| 20260505235039 | 30 | 134 | 4.8 | 17.7 | 0.00 | 0.00 | 0.00 | 64 | 1003.1 |
| 20260505234602 | 30 | 135 | 8.0 | 17.7 | 0.00 | 0.00 | 0.00 | 63 | 1003.1 |
| 20260505234038 | 30 | 192 | 6.4 | 16.1 | 0.00 | 0.00 | 0.00 | 62 | 1003.0 |
| 20260505233538 | 30 | 161 | 8.0 | 16.1 | 0.00 | 0.00 | 0.00 | 63 | 1003.0 |
| 20260505233039 | 30 | 132 | 9.7 | 20.9 | 0.00 | 0.00 | 0.00 | 63 | 1002.9 |
| 20260505232540 | 30 | 143 | 14.5 | 20.9 | 0.00 | 0.00 | 0.00 | 62 | 1003.1 |
| 20260505232037 | 30 | 150 | 8.0 | 22.5 | 0.00 | 0.00 | 0.00 | 62 | 1003.0 |
| 20260505231538 | 30 | 182 | 3.2 | 14.5 | 0.00 | 0.00 | 0.00 | 62 | 1002.9 |
| 20260505231040 | 30 | 196 | 4.8 | 16.1 | 0.00 | 0.00 | 0.00 | 60 | 1002.9 |
| 20260505230536 | 31 | 165 | 4.8 | 16.1 | 0.00 | 0.00 | 0.00 | 60 | 1003.0 |
| 20260505230041 | 31 | 163 | 3.2 | 11.3 | 0.00 | 0.00 | 0.00 | 60 | 1003.0 |
| 20260505225539 | 31 | 170 | 4.8 | 12.9 | 0.00 | 0.00 | 0.00 | 60 | 1003.1 |
| 20260505225036 | 31 | 194 | 8.0 | 20.9 | 0.00 | 0.00 | 0.00 | 60 | 1002.9 |
| 20260505224536 | 31 | 186 | 9.7 | 19.3 | 0.00 | 0.00 | 0.00 | 59 | 1002.9 |
| 20260505224035 | 31 | 217 | 6.4 | 14.5 | 0.00 | 0.00 | 0.00 | 59 | 1002.9 |
| 20260505223534 | 31 | 255 | 6.4 | 16.1 | 0.00 | 0.00 | 0.00 | 60 | 1003.0 |
| 20260505223034 | 30 | 163 | 4.8 | 17.7 | 0.00 | 0.00 | 0.00 | 60 | 1003.1 |
| 20260505222533 | 30 | 215 | 9.7 | 17.7 | 0.00 | 0.00 | 0.00 | 60 | 1003.1 |
| 20260505222033 | 30 | 180 | 8.0 | 16.1 | 0.00 | 0.00 | 0.00 | 59 | 1003.1 |
| 20260505221533 | 30 | 171 | 8.0 | 22.5 | 0.00 | 0.00 | 0.00 | 60 | 1003.2 |
| 20260505221031 | 31 | 213 | 4.8 | 17.7 | 0.00 | 0.00 | 0.00 | 60 | 1003.2 |
| 20260505220530 | 30 | 178 | 4.8 | 17.7 | 0.00 | 0.00 | 0.00 | 61 | 1003.4 |
| 20260505220029 | 30 | 202 | 4.8 | 17.7 | 0.00 | 0.00 | 0.00 | 61 | 1003.4 |
| 20260505215529 | 30 | 165 | 6.4 | 17.7 | 0.00 | 0.00 | 0.00 | 61 | 1003.4 |
| 20260505215027 | 30 | 188 | 8.0 | 17.7 | 0.00 | 0.00 | 0.00 | 62 | 1003.5 |
| 20260505214534 | 30 | 163 | 4.8 | 17.7 | 0.00 | 0.00 | 0.00 | 62 | 1003.6 |
| 20260505214030 | 29 | 173 | 8.0 | 19.3 | 0.00 | 0.00 | 0.00 | 63 | 1003.6 |
| 20260505213525 | 30 | 160 | 12.9 | 19.3 | 0.00 | 0.00 | 0.00 | 61 | 1003.8 |
| 20260505213026 | 30 | 188 | 4.8 | 16.1 | 0.00 | 0.00 | 0.00 | 61 | 1003.7 |
| 20260505212524 | 30 | 217 | 9.7 | 16.1 | 0.00 | 0.00 | 0.00 | 62 | 1003.9 |
| 20260505212024 | 29 | 197 | 8.0 | 19.3 | 0.00 | 0.00 | 0.00 | 63 | 1003.9 |
| 20260505211535 | 29 | 196 | 16.1 | 25.7 | 0.00 | 0.00 | 0.00 | 62 | 1004.0 |
| 20260505211023 | 29 | 221 | 9.7 | 19.3 | 0.00 | 0.00 | 0.00 | 63 | 1004.1 |
| 20260505210523 | 28 | 174 | 6.4 | 20.9 | 0.00 | 0.00 | 0.00 | 63 | 1004.1 |
| 20260505210020 | 28 | 211 | 11.3 | 22.5 | 0.00 | 0.00 | 0.00 | 64 | 1004.3 |
| 20260505205519 | 28 | 182 | 9.7 | 17.7 | 0.00 | 0.00 | 0.00 | 64 | 1004.4 |
| 20260505205020 | 29 | 179 | 6.4 | 16.1 | 0.00 | 0.00 | 0.00 | 63 | 1004.4 |
| 20260505204518 | 29 | 210 | 4.8 | 17.7 | 0.00 | 0.00 | 0.00 | 64 | 1004.5 |
| 20260505204017 | 28 | 180 | 4.8 | 22.5 | 0.00 | 0.00 | 0.00 | 64 | 1004.6 |
| 20260505203517 | 28 | 169 | 9.7 | 22.5 | 0.00 | 0.00 | 0.00 | 63 | 1004.7 |
| 20260505203016 | 29 | 161 | 9.7 | 16.1 | 0.00 | 0.00 | 0.00 | 63 | 1004.8 |
| 20260505202515 | 29 | 209 | 6.4 | 19.3 | 0.00 | 0.00 | 0.00 | 63 | 1004.9 |
| 20260505202014 | 28 | 198 | 11.3 | 22.5 | 0.00 | 0.00 | 0.00 | 63 | 1005.0 |